TimeEST,TemperatureF,Dew PointF,Humidity,Sea Level PressureIn,VisibilityMPH,Wind Direction,Wind SpeedMPH,Gust SpeedMPH,PrecipitationIn,Events,Conditions,WindDirDegrees,DateUTC
12:15 AM,35.6,30.2,81,30.26,10.0,NNW,3.5,-,N/A,,Clear,330,2013-01-07 05:15:00
12:35 AM,35.6,28.4,75,30.26,10.0,NW,3.5,-,N/A,,Clear,310,2013-01-07 05:35:00
12:55 AM,35.6,28.4,75,30.25,10.0,WNW,3.5,-,N/A,,Clear,290,2013-01-07 05:55:00
1:35 AM,35.6,28.4,75,30.26,10.0,NW,3.5,-,N/A,,Clear,310,2013-01-07 06:35:00
1:55 AM,35.6,28.4,75,30.27,10.0,NW,6.9,-,N/A,,Clear,310,2013-01-07 06:55:00
2:15 AM,33.8,28.4,81,30.27,10.0,NW,4.6,-,N/A,,Clear,310,2013-01-07 07:15:00
2:35 AM,35.6,26.6,70,30.28,10.0,Calm,Calm,-,N/A,,Clear,0,2013-01-07 07:35:00
2:55 AM,33.8,26.6,75,30.28,10.0,NW,4.6,-,N/A,,Clear,310,2013-01-07 07:55:00
3:15 AM,33.8,26.6,75,30.28,10.0,Calm,Calm,-,N/A,,Clear,0,2013-01-07 08:15:00
3:35 AM,33.8,26.6,75,30.29,10.0,NW,3.5,-,N/A,,Clear,310,2013-01-07 08:35:00
3:55 AM,33.8,26.6,75,30.29,10.0,Calm,Calm,-,N/A,,Clear,0,2013-01-07 08:55:00
4:15 AM,32.0,26.6,80,30.28,10.0,NW,4.6,-,N/A,,Clear,320,2013-01-07 09:15:00
4:35 AM,32.0,26.6,80,30.28,10.0,NW,5.8,-,N/A,,Clear,310,2013-01-07 09:35:00
4:55 AM,32.0,26.6,80,30.28,10.0,NW,3.5,-,N/A,,Clear,320,2013-01-07 09:55:00
5:15 AM,32.0,26.6,80,30.28,10.0,NW,4.6,-,N/A,,Clear,320,2013-01-07 10:15:00
5:35 AM,32.0,26.6,80,30.28,10.0,NNW,3.5,-,N/A,,Clear,330,2013-01-07 10:35:00
5:55 AM,32.0,24.8,75,30.27,10.0,NNW,3.5,-,N/A,,Clear,330,2013-01-07 10:55:00
6:15 AM,32.0,24.8,75,30.27,10.0,Calm,Calm,-,N/A,,Clear,0,2013-01-07 11:15:00
6:35 AM,32.0,23.0,69,30.27,10.0,Calm,Calm,-,N/A,,Clear,0,2013-01-07 11:35:00
6:55 AM,32.0,23.0,69,30.28,10.0,Calm,Calm,-,N/A,,Clear,0,2013-01-07 11:55:00
7:15 AM,32.0,23.0,69,30.28,10.0,Calm,Calm,-,N/A,,Clear,0,2013-01-07 12:15:00
7:35 AM,32.0,23.0,69,30.29,10.0,Calm,Calm,-,N/A,,Clear,0,2013-01-07 12:35:00
7:55 AM,30.2,23.0,75,30.30,10.0,Calm,Calm,-,N/A,,Clear,0,2013-01-07 12:55:00
8:15 AM,30.2,23.0,75,30.31,4.0,Calm,Calm,-,N/A,,Haze,0,2013-01-07 13:15:00
8:35 AM,32.0,26.6,80,30.32,10.0,Calm,Calm,-,N/A,,Clear,0,2013-01-07 13:35:00
8:55 AM,32.0,26.6,80,30.33,10.0,Calm,Calm,-,N/A,,Clear,0,2013-01-07 13:55:00
9:15 AM,33.8,24.8,70,30.34,10.0,Calm,Calm,-,N/A,,Clear,0,2013-01-07 14:15:00
9:35 AM,33.8,24.8,70,30.35,10.0,Calm,Calm,-,N/A,,Clear,0,2013-01-07 14:35:00
9:55 AM,35.6,23.0,60,30.36,10.0,Calm,Calm,-,N/A,,Clear,0,2013-01-07 14:55:00
10:35 AM,41.0,23.0,49,30.37,10.0,ENE,3.5,-,N/A,,Clear,70,2013-01-07 15:35:00
11:15 AM,44.6,21.2,39,30.37,10.0,ENE,4.6,-,N/A,,Clear,70,2013-01-07 16:15:00
11:35 AM,46.4,21.2,37,30.36,10.0,East,4.6,-,N/A,,Clear,90,2013-01-07 16:35:00
11:55 AM,50.0,21.2,32,30.36,10.0,East,8.1,-,N/A,,Clear,100,2013-01-07 16:55:00
12:15 PM,50.0,19.4,30,30.34,10.0,East,4.6,-,N/A,,Clear,90,2013-01-07 17:15:00
12:55 PM,53.6,12.2,19,30.31,10.0,SE,6.9,-,N/A,,Clear,130,2013-01-07 17:55:00
1:15 PM,53.6,12.2,19,30.31,10.0,SE,5.8,-,N/A,,Clear,130,2013-01-07 18:15:00
1:35 PM,53.6,10.4,18,30.30,10.0,East,6.9,-,N/A,,Clear,90,2013-01-07 18:35:00
1:55 PM,53.6,8.6,16,30.30,10.0,East,6.9,-,N/A,,Clear,90,2013-01-07 18:55:00
2:15 PM,55.4,6.8,14,30.29,10.0,East,5.8,-,N/A,,Clear,100,2013-01-07 19:15:00
2:35 PM,55.4,6.8,14,30.29,10.0,East,6.9,-,N/A,,Clear,80,2013-01-07 19:35:00
2:55 PM,55.4,6.8,14,30.29,10.0,ESE,8.1,-,N/A,,Clear,120,2013-01-07 19:55:00
3:15 PM,53.6,8.6,16,30.29,10.0,SE,6.9,-,N/A,,Clear,130,2013-01-07 20:15:00
3:35 PM,55.4,5.0,13,30.30,10.0,East,6.9,-,N/A,,Clear,100,2013-01-07 20:35:00
3:55 PM,55.4,8.6,15,30.30,10.0,East,5.8,-,N/A,,Clear,90,2013-01-07 20:55:00
4:15 PM,55.4,8.6,15,30.31,10.0,ESE,5.8,-,N/A,,Clear,110,2013-01-07 21:15:00
4:55 PM,53.6,8.6,16,30.31,10.0,ESE,8.1,-,N/A,,Clear,110,2013-01-07 21:55:00
5:15 PM,51.8,10.4,19,30.32,10.0,ESE,4.6,-,N/A,,Clear,110,2013-01-07 22:15:00
5:35 PM,51.8,14.0,22,30.32,10.0,East,3.5,-,N/A,,Clear,80,2013-01-07 22:35:00
5:55 PM,50.0,15.8,26,30.31,10.0,ENE,3.5,-,N/A,,Clear,70,2013-01-07 22:55:00
6:15 PM,50.0,17.6,28,30.32,10.0,East,3.5,-,N/A,,Clear,80,2013-01-07 23:15:00
6:35 PM,48.2,17.6,30,30.32,10.0,East,3.5,-,N/A,,Clear,80,2013-01-07 23:35:00
6:55 PM,46.4,17.6,32,30.33,10.0,East,3.5,-,N/A,,Clear,80,2013-01-07 23:55:00
7:15 PM,46.4,19.4,34,30.33,10.0,East,3.5,-,N/A,,Clear,80,2013-01-08 00:15:00
7:35 PM,46.4,19.4,34,30.33,10.0,East,3.5,-,N/A,,Clear,80,2013-01-08 00:35:00
7:55 PM,44.6,19.4,37,30.34,10.0,East,3.5,-,N/A,,Clear,90,2013-01-08 00:55:00
8:15 PM,44.6,21.2,39,30.33,10.0,East,3.5,-,N/A,,Clear,80,2013-01-08 01:15:00
8:35 PM,42.8,21.2,42,30.33,10.0,East,4.6,-,N/A,,Clear,80,2013-01-08 01:35:00
8:55 PM,42.8,21.2,42,30.33,10.0,East,3.5,-,N/A,,Clear,80,2013-01-08 01:55:00
9:15 PM,42.8,21.2,42,30.33,10.0,ENE,3.5,-,N/A,,Clear,70,2013-01-08 02:15:00
9:55 PM,41.0,21.2,45,30.33,10.0,East,4.6,-,N/A,,Clear,90,2013-01-08 02:55:00
10:15 PM,41.0,21.2,45,30.33,10.0,ENE,4.6,-,N/A,,Clear,70,2013-01-08 03:15:00
10:35 PM,41.0,23.0,49,30.33,10.0,East,3.5,-,N/A,,Clear,80,2013-01-08 03:35:00
10:55 PM,41.0,23.0,49,30.33,10.0,East,4.6,-,N/A,,Clear,80,2013-01-08 03:55:00
11:35 PM,39.2,23.0,52,30.33,10.0,East,4.6,-,N/A,,Clear,80,2013-01-08 04:35:00
11:55 PM,39.2,23.0,52,30.33,10.0,East,5.8,-,N/A,,Clear,80,2013-01-08 04:55:00